STATION	Long[degrees_east]	Lat[degrees_north]	DEPTH[m]	time_ISO8601[ISO8601]	TEMP[deg]	PSAL[PSU]
S1	13.9484	76.4381	1003	2016-06-23 07:01:00	-0.7451	34.9073
S1	13.9484	76.4381	1003	2016-06-23 08:01:00	-0.7547	34.9071
S1	13.9484	76.4381	1003	2016-06-23 09:01:00	-0.7673	34.9072
S1	13.9484	76.4381	1003	2016-06-23 10:01:00	-0.8057	34.9074
S1	13.9484	76.4381	1003	2016-06-23 11:01:00	-0.8073	34.9072
S1	13.9484	76.4381	1003	2016-06-23 12:01:00	-0.8114	34.9074
S1	13.9484	76.4381	1003	2016-06-23 13:01:00	-0.7825	34.907
S1	13.9484	76.4381	1003	2016-06-23 14:01:00	-0.8133	34.9073
S1	13.9484	76.4381	1003	2016-06-23 15:01:00	-0.8136	34.9073
S1	13.9484	76.4381	1003	2016-06-23 16:01:00	-0.8135	34.9074
S1	13.9484	76.4381	1003	2016-06-23 17:01:00	-0.816	34.9072
S1	13.9484	76.4381	1003	2016-06-23 18:01:00	-0.824	34.9075
S1	13.9484	76.4381	1003	2016-06-23 19:01:00	-0.8307	34.9076
S1	13.9484	76.4381	1003	2016-06-23 20:01:00	-0.8242	34.9077
S1	13.9484	76.4381	1003	2016-06-23 21:01:00	-0.8206	34.9073
S1	13.9484	76.4381	1003	2016-06-23 22:01:00	-0.824	34.9072
S1	13.9484	76.4381	1003	2016-06-23 23:01:00	-0.8244	34.9071
S1	13.9484	76.4381	1003	2016-06-24 00:01:00	-0.8293	34.9073
S1	13.9484	76.4381	1003	2016-06-24 01:01:00	-0.8371	34.9073
S1	13.9484	76.4381	1003	2016-06-24 02:01:00	-0.8392	34.9073
S1	13.9484	76.4381	1003	2016-06-24 03:01:00	-0.829	34.9073
S1	13.9484	76.4381	1003	2016-06-24 04:01:00	-0.821	34.9074
S1	13.9484	76.4381	1003	2016-06-24 05:01:00	-0.8262	34.9076
S1	13.9484	76.4381	1003	2016-06-24 06:01:00	-0.8254	34.9075
S1	13.9484	76.4381	1003	2016-06-24 07:01:00	-0.8271	34.9077
S1	13.9484	76.4381	1003	2016-06-24 08:01:00	-0.8342	34.9077
S1	13.9484	76.4381	1003	2016-06-24 09:01:00	-0.8367	34.9076
S1	13.9484	76.4381	1003	2016-06-24 10:01:00	-0.837	34.9075
S1	13.9484	76.4381	1003	2016-06-24 11:01:00	-0.8425	34.9079
S1	13.9484	76.4381	1003	2016-06-24 12:01:00	-0.8422	34.9077
S1	13.9484	76.4381	1003	2016-06-24 13:01:00	-0.8407	34.9077
S1	13.9484	76.4381	1003	2016-06-24 14:01:00	-0.8412	34.9076
S1	13.9484	76.4381	1003	2016-06-24 15:01:00	-0.839	34.9078
S1	13.9484	76.4381	1003	2016-06-24 16:01:00	-0.8234	34.9077
S1	13.9484	76.4381	1003	2016-06-24 17:01:00	-0.8207	34.9075
S1	13.9484	76.4381	1003	2016-06-24 18:01:00	-0.8244	34.9075
S1	13.9484	76.4381	1003	2016-06-24 19:01:00	-0.8134	34.9074
S1	13.9484	76.4381	1003	2016-06-24 20:01:00	-0.8026	34.9072
S1	13.9484	76.4381	1003	2016-06-24 21:01:00	-0.7984	34.9071
S1	13.9484	76.4381	1003	2016-06-24 22:01:00	-0.7606	34.9071
S1	13.9484	76.4381	1003	2016-06-24 23:01:00	-0.7898	34.9072
S1	13.9484	76.4381	1003	2016-06-25 00:01:00	-0.7797	34.9072
S1	13.9484	76.4381	1003	2016-06-25 01:01:00	-0.7766	34.9073
S1	13.9484	76.4381	1003	2016-06-25 02:01:00	-0.7691	34.9071
S1	13.9484	76.4381	1003	2016-06-25 03:01:00	-0.7437	34.9073
S1	13.9484	76.4381	1003	2016-06-25 04:01:00	-0.743	34.9072
S1	13.9484	76.4381	1003	2016-06-25 05:01:00	-0.7494	34.9072
S1	13.9484	76.4381	1003	2016-06-25 06:01:00	-0.7607	34.907
S1	13.9484	76.4381	1003	2016-06-25 07:01:00	-0.7718	34.9072
S1	13.9484	76.4381	1003	2016-06-25 08:01:00	-0.7894	34.907
S1	13.9484	76.4381	1003	2016-06-25 09:01:00	-0.834	34.9074
S1	13.9484	76.4381	1003	2016-06-25 10:01:00	-0.8341	34.9073
S1	13.9484	76.4381	1003	2016-06-25 11:01:00	-0.8321	34.9076
S1	13.9484	76.4381	1003	2016-06-25 12:01:00	-0.8297	34.9074
S1	13.9484	76.4381	1003	2016-06-25 13:01:00	-0.8317	34.9074
S1	13.9484	76.4381	1003	2016-06-25 14:01:00	-0.8302	34.9075
S1	13.9484	76.4381	1003	2016-06-25 15:01:00	-0.8294	34.9078
S1	13.9484	76.4381	1003	2016-06-25 16:01:00	-0.8362	34.9075
S1	13.9484	76.4381	1003	2016-06-25 17:01:00	-0.8379	34.9072
S1	13.9484	76.4381	1003	2016-06-25 18:01:00	-0.827	34.9074
S1	13.9484	76.4381	1003	2016-06-25 19:01:00	-0.8389	34.9076
S1	13.9484	76.4381	1003	2016-06-25 20:01:00	-0.8389	34.9074
S1	13.9484	76.4381	1003	2016-06-25 21:01:00	-0.8394	34.9075
S1	13.9484	76.4381	1003	2016-06-25 22:01:00	-0.8387	34.9075
S1	13.9484	76.4381	1003	2016-06-25 23:01:00	-0.8392	34.9073
S1	13.9484	76.4381	1003	2016-06-26 00:01:00	-0.8367	34.9073
S1	13.9484	76.4381	1003	2016-06-26 01:01:00	-0.8342	34.9074
S1	13.9484	76.4381	1003	2016-06-26 02:01:00	-0.8388	34.9077
S1	13.9484	76.4381	1003	2016-06-26 03:01:00	-0.8381	34.9075
S1	13.9484	76.4381	1003	2016-06-26 04:01:00	-0.8398	34.9077
S1	13.9484	76.4381	1003	2016-06-26 05:01:00	-0.8392	34.9074
S1	13.9484	76.4381	1003	2016-06-26 06:01:00	-0.8391	34.9077
S1	13.9484	76.4381	1003	2016-06-26 07:01:00	-0.8386	34.9074
S1	13.9484	76.4381	1003	2016-06-26 08:01:00	-0.8379	34.9075
S1	13.9484	76.4381	1003	2016-06-26 09:01:00	-0.835	34.9074
S1	13.9484	76.4381	1003	2016-06-26 10:01:00	-0.8403	34.9076
S1	13.9484	76.4381	1003	2016-06-26 11:01:00	-0.8412	34.9076
S1	13.9484	76.4381	1003	2016-06-26 12:01:00	-0.8414	34.9075
S1	13.9484	76.4381	1003	2016-06-26 13:01:00	-0.8408	34.9076
S1	13.9484	76.4381	1003	2016-06-26 14:01:00	-0.8372	34.9079
S1	13.9484	76.4381	1003	2016-06-26 15:01:00	-0.831	34.9074
S1	13.9484	76.4381	1003	2016-06-26 16:01:00	-0.8414	34.9076
S1	13.9484	76.4381	1003	2016-06-26 17:01:00	-0.8382	34.9075
S1	13.9484	76.4381	1003	2016-06-26 18:01:00	-0.8291	34.9072
S1	13.9484	76.4381	1003	2016-06-26 19:01:00	-0.8366	34.9073
S1	13.9484	76.4381	1003	2016-06-26 20:01:00	-0.8105	34.9074
S1	13.9484	76.4381	1003	2016-06-26 21:01:00	-0.8053	34.9072
S1	13.9484	76.4381	1003	2016-06-26 22:01:00	-0.7971	34.9071
S1	13.9484	76.4381	1003	2016-06-26 23:01:00	-0.8036	34.9075
S1	13.9484	76.4381	1003	2016-06-27 00:01:00	-0.8006	34.907
S1	13.9484	76.4381	1003	2016-06-27 01:01:00	-0.7907	34.9073
S1	13.9484	76.4381	1003	2016-06-27 02:01:00	-0.7745	34.9074
S1	13.9484	76.4381	1003	2016-06-27 03:01:00	-0.756	34.9071
S1	13.9484	76.4381	1003	2016-06-27 04:01:00	-0.7576	34.9072
S1	13.9484	76.4381	1003	2016-06-27 05:01:00	-0.7386	34.9073
S1	13.9484	76.4381	1003	2016-06-27 06:01:00	-0.7374	34.9072
S1	13.9484	76.4381	1003	2016-06-27 07:01:00	-0.7731	34.9072
S1	13.9484	76.4381	1003	2016-06-27 08:01:00	-0.7549	34.9072
S1	13.9484	76.4381	1003	2016-06-27 09:01:00	-0.7182	34.9072
S1	13.9484	76.4381	1003	2016-06-27 10:01:00	-0.7598	34.9072
S1	13.9484	76.4381	1003	2016-06-27 11:01:00	-0.7113	34.9071
S1	13.9484	76.4381	1003	2016-06-27 12:01:00	-0.6741	34.9069
S1	13.9484	76.4381	1003	2016-06-27 13:01:00	-0.6521	34.9072
S1	13.9484	76.4381	1003	2016-06-27 14:01:00	-0.6433	34.9074
S1	13.9484	76.4381	1003	2016-06-27 15:01:00	-0.6341	34.9075
S1	13.9484	76.4381	1003	2016-06-27 16:01:00	-0.6224	34.9078
S1	13.9484	76.4381	1003	2016-06-27 17:01:00	-0.6641	34.9075
S1	13.9484	76.4381	1003	2016-06-27 18:01:00	-0.6992	34.9072
S1	13.9484	76.4381	1003	2016-06-27 19:01:00	-0.7427	34.9071
S1	13.9484	76.4381	1003	2016-06-27 20:01:00	-0.7566	34.9077
S1	13.9484	76.4381	1003	2016-06-27 21:01:00	-0.7385	34.907
S1	13.9484	76.4381	1003	2016-06-27 22:01:00	-0.7757	34.9068
S1	13.9484	76.4381	1003	2016-06-27 23:01:00	-0.798	34.9074
S1	13.9484	76.4381	1003	2016-06-28 00:01:00	-0.7817	34.9072
S1	13.9484	76.4381	1003	2016-06-28 01:01:00	-0.8115	34.9073
S1	13.9484	76.4381	1003	2016-06-28 02:01:00	-0.8145	34.9074
S1	13.9484	76.4381	1003	2016-06-28 03:01:00	-0.8182	34.9072
S1	13.9484	76.4381	1003	2016-06-28 04:01:00	-0.8189	34.9074
S1	13.9484	76.4381	1003	2016-06-28 05:01:00	-0.8167	34.9071
S1	13.9484	76.4381	1003	2016-06-28 06:01:00	-0.8167	34.9074
S1	13.9484	76.4381	1003	2016-06-28 07:01:00	-0.8152	34.9075
S1	13.9484	76.4381	1003	2016-06-28 08:01:00	-0.8134	34.907
S1	13.9484	76.4381	1003	2016-06-28 09:01:00	-0.8086	34.9072
S1	13.9484	76.4381	1003	2016-06-28 10:01:00	-0.8067	34.9081
S1	13.9484	76.4381	1003	2016-06-28 11:01:00	-0.8074	34.907
S1	13.9484	76.4381	1003	2016-06-28 12:01:00	-0.809	34.9076
S1	13.9484	76.4381	1003	2016-06-28 13:01:00	-0.7827	34.9073
S1	13.9484	76.4381	1003	2016-06-28 14:01:00	-0.7734	34.9072
S1	13.9484	76.4381	1003	2016-06-28 15:01:00	-0.7748	34.9073
S1	13.9484	76.4381	1003	2016-06-28 16:01:00	-0.7704	34.9069
S1	13.9484	76.4381	1003	2016-06-28 17:01:00	-0.7734	34.9067
S1	13.9484	76.4381	1003	2016-06-28 18:01:00	-0.7869	34.9076
S1	13.9484	76.4381	1003	2016-06-28 19:01:00	-0.7736	34.9068
S1	13.9484	76.4381	1003	2016-06-28 20:01:00	-0.761	34.9071
S1	13.9484	76.4381	1003	2016-06-28 21:01:00	-0.7795	34.9074
S1	13.9484	76.4381	1003	2016-06-28 22:01:00	-0.7621	34.9071
S1	13.9484	76.4381	1003	2016-06-28 23:01:00	-0.7935	34.9069
S1	13.9484	76.4381	1003	2016-06-29 00:01:00	-0.7862	34.9072
S1	13.9484	76.4381	1003	2016-06-29 01:01:00	-0.7781	34.907
S1	13.9484	76.4381	1003	2016-06-29 02:01:00	-0.7753	34.907
S1	13.9484	76.4381	1003	2016-06-29 03:01:00	-0.781	34.907
S1	13.9484	76.4381	1003	2016-06-29 04:01:00	-0.7825	34.9071
S1	13.9484	76.4381	1003	2016-06-29 05:01:00	-0.7855	34.9072
S1	13.9484	76.4381	1003	2016-06-29 06:01:00	-0.7647	34.9069
S1	13.9484	76.4381	1003	2016-06-29 07:01:00	-0.7602	34.907
S1	13.9484	76.4381	1003	2016-06-29 08:01:00	-0.7583	34.9069
S1	13.9484	76.4381	1003	2016-06-29 09:01:00	-0.7619	34.907
S1	13.9484	76.4381	1003	2016-06-29 10:01:00	-0.7935	34.9071
S1	13.9484	76.4381	1003	2016-06-29 11:01:00	-0.7997	34.9071
S1	13.9484	76.4381	1003	2016-06-29 12:01:00	-0.7997	34.907
S1	13.9484	76.4381	1003	2016-06-29 13:01:00	-0.8034	34.9073
S1	13.9484	76.4381	1003	2016-06-29 14:01:00	-0.7946	34.9071
S1	13.9484	76.4381	1003	2016-06-29 15:01:00	-0.7823	34.907
S1	13.9484	76.4381	1003	2016-06-29 16:01:00	-0.79	34.9071
S1	13.9484	76.4381	1003	2016-06-29 17:01:00	-0.7823	34.9071
S1	13.9484	76.4381	1003	2016-06-29 18:01:00	-0.7972	34.9075
S1	13.9484	76.4381	1003	2016-06-29 19:01:00	-0.784	34.907
S1	13.9484	76.4381	1003	2016-06-29 20:01:00	-0.7886	34.9071
S1	13.9484	76.4381	1003	2016-06-29 21:01:00	-0.7776	34.9072
S1	13.9484	76.4381	1003	2016-06-29 22:01:00	-0.7775	34.9072
S1	13.9484	76.4381	1003	2016-06-29 23:01:00	-0.7946	34.9071
S1	13.9484	76.4381	1003	2016-06-30 00:01:00	-0.7848	34.9071
S1	13.9484	76.4381	1003	2016-06-30 01:01:00	-0.7995	34.9068
S1	13.9484	76.4381	1003	2016-06-30 02:01:00	-0.7914	34.9073
S1	13.9484	76.4381	1003	2016-06-30 03:01:00	-0.7756	34.9069
S1	13.9484	76.4381	1003	2016-06-30 04:01:00	-0.7541	34.9073
S1	13.9484	76.4381	1003	2016-06-30 05:01:00	-0.7792	34.9073
S1	13.9484	76.4381	1003	2016-06-30 06:01:00	-0.7784	34.9066
S1	13.9484	76.4381	1003	2016-06-30 07:01:00	-0.7994	34.907
S1	13.9484	76.4381	1003	2016-06-30 08:01:00	-0.7913	34.9072
S1	13.9484	76.4381	1003	2016-06-30 09:01:00	-0.801	34.9073
S1	13.9484	76.4381	1003	2016-06-30 10:01:00	-0.7883	34.907
S1	13.9484	76.4381	1003	2016-06-30 11:01:00	-0.7834	34.9073
S1	13.9484	76.4381	1003	2016-06-30 12:01:00	-0.8041	34.9072
S1	13.9484	76.4381	1003	2016-06-30 13:01:00	-0.7687	34.9073
S1	13.9484	76.4381	1003	2016-06-30 14:01:00	-0.7777	34.9063
S1	13.9484	76.4381	1003	2016-06-30 15:01:00	-0.8058	34.9074
S1	13.9484	76.4381	1003	2016-06-30 16:01:00	-0.8097	34.9072
S1	13.9484	76.4381	1003	2016-06-30 17:01:00	-0.8066	34.9072
S1	13.9484	76.4381	1003	2016-06-30 18:01:00	-0.8115	34.907
S1	13.9484	76.4381	1003	2016-06-30 19:01:00	-0.8047	34.9072
S1	13.9484	76.4381	1003	2016-06-30 20:01:00	-0.8092	34.9073
S1	13.9484	76.4381	1003	2016-06-30 21:01:00	-0.8044	34.9073
S1	13.9484	76.4381	1003	2016-06-30 22:01:00	-0.8047	34.9074
S1	13.9484	76.4381	1003	2016-06-30 23:01:00	-0.8077	34.9072
S1	13.9484	76.4381	1003	2016-07-01 00:01:00	-0.7997	34.9074
S1	13.9484	76.4381	1003	2016-07-01 01:01:00	-0.7781	34.9073
S1	13.9484	76.4381	1003	2016-07-01 02:01:00	-0.7779	34.9072
S1	13.9484	76.4381	1003	2016-07-01 03:01:00	-0.7276	34.9066
S1	13.9484	76.4381	1003	2016-07-01 04:01:00	-0.803	34.9074
S1	13.9484	76.4381	1003	2016-07-01 05:01:00	-0.8083	34.9076
S1	13.9484	76.4381	1003	2016-07-01 06:01:00	-0.8086	34.9075
S1	13.9484	76.4381	1003	2016-07-01 07:01:00	-0.7925	34.9078
S1	13.9484	76.4381	1003	2016-07-01 08:01:00	-0.7336	34.9066
S1	13.9484	76.4381	1003	2016-07-01 09:01:00	-0.7901	34.9073
S1	13.9484	76.4381	1003	2016-07-01 10:01:00	-0.811	34.9074
S1	13.9484	76.4381	1003	2016-07-01 11:01:00	-0.811	34.9074
S1	13.9484	76.4381	1003	2016-07-01 12:01:00	-0.786	34.9067
S1	13.9484	76.4381	1003	2016-07-01 13:01:00	-0.8191	34.9076
S1	13.9484	76.4381	1003	2016-07-01 14:01:00	-0.8273	34.9077
S1	13.9484	76.4381	1003	2016-07-01 15:01:00	-0.8354	34.9073
S1	13.9484	76.4381	1003	2016-07-01 16:01:00	-0.8453	34.9079
S1	13.9484	76.4381	1003	2016-07-01 17:01:00	-0.8412	34.9082
S1	13.9484	76.4381	1003	2016-07-01 18:01:00	-0.835	34.9072
S1	13.9484	76.4381	1003	2016-07-01 19:01:00	-0.8226	34.9072
S1	13.9484	76.4381	1003	2016-07-01 20:01:00	-0.8167	34.9072
S1	13.9484	76.4381	1003	2016-07-01 21:01:00	-0.8111	34.9072
S1	13.9484	76.4381	1003	2016-07-01 22:01:00	-0.786	34.907
S1	13.9484	76.4381	1003	2016-07-01 23:01:00	-0.782	34.907
S1	13.9484	76.4381	1003	2016-07-02 00:01:00	-0.7946	34.9073
S1	13.9484	76.4381	1003	2016-07-02 01:01:00	-0.7977	34.9074
S1	13.9484	76.4381	1003	2016-07-02 02:01:00	-0.7703	34.9073
S1	13.9484	76.4381	1003	2016-07-02 03:01:00	-0.7431	34.9078
S1	13.9484	76.4381	1003	2016-07-02 04:01:00	-0.7169	34.9074
S1	13.9484	76.4381	1003	2016-07-02 05:01:00	-0.7458	34.9073
S1	13.9484	76.4381	1003	2016-07-02 06:01:00	-0.807	34.907
S1	13.9484	76.4381	1003	2016-07-02 07:01:00	-0.82	34.9074
S1	13.9484	76.4381	1003	2016-07-02 08:01:00	-0.8214	34.9075
S1	13.9484	76.4381	1003	2016-07-02 09:01:00	-0.8211	34.9078
S1	13.9484	76.4381	1003	2016-07-02 10:01:00	-0.8186	34.9075
S1	13.9484	76.4381	1003	2016-07-02 11:01:00	-0.8095	34.9075
S1	13.9484	76.4381	1003	2016-07-02 12:01:00	-0.8029	34.9071
S1	13.9484	76.4381	1003	2016-07-02 13:01:00	-0.8223	34.9077
S1	13.9484	76.4381	1003	2016-07-02 14:01:00	-0.8307	34.9075
S1	13.9484	76.4381	1003	2016-07-02 15:01:00	-0.8261	34.9075
S1	13.9484	76.4381	1003	2016-07-02 16:01:00	-0.8213	34.9072
S1	13.9484	76.4381	1003	2016-07-02 17:01:00	-0.8104	34.9071
S1	13.9484	76.4381	1003	2016-07-02 18:01:00	-0.8141	34.9072
S1	13.9484	76.4381	1003	2016-07-02 19:01:00	-0.771	34.9069
S1	13.9484	76.4381	1003	2016-07-02 20:01:00	-0.7731	34.9073
S1	13.9484	76.4381	1003	2016-07-02 21:01:00	-0.7461	34.9073
S1	13.9484	76.4381	1003	2016-07-02 22:01:00	-0.7692	34.9069
S1	13.9484	76.4381	1003	2016-07-02 23:01:00	-0.7707	34.9072
S1	13.9484	76.4381	1003	2016-07-03 00:01:00	-0.7661	34.9073
S1	13.9484	76.4381	1003	2016-07-03 01:01:00	-0.7501	34.9076
S1	13.9484	76.4381	1003	2016-07-03 02:01:00	-0.7471	34.9075
S1	13.9484	76.4381	1003	2016-07-03 03:01:00	-0.7018	34.908
S1	13.9484	76.4381	1003	2016-07-03 04:01:00	-0.705	34.9069
S1	13.9484	76.4381	1003	2016-07-03 05:01:00	-0.7438	34.9073
S1	13.9484	76.4381	1003	2016-07-03 06:01:00	-0.7605	34.9069
S1	13.9484	76.4381	1003	2016-07-03 07:01:00	-0.7602	34.9072
S1	13.9484	76.4381	1003	2016-07-03 08:01:00	-0.757	34.9072
S1	13.9484	76.4381	1003	2016-07-03 09:01:00	-0.7697	34.9071
S1	13.9484	76.4381	1003	2016-07-03 10:01:00	-0.7584	34.9069
S1	13.9484	76.4381	1003	2016-07-03 11:01:00	-0.7555	34.9067
S1	13.9484	76.4381	1003	2016-07-03 12:01:00	-0.7773	34.9071
S1	13.9484	76.4381	1003	2016-07-03 13:01:00	-0.7559	34.9064
S1	13.9484	76.4381	1003	2016-07-03 14:01:00	-0.7466	34.9074
S1	13.9484	76.4381	1003	2016-07-03 15:01:00	-0.756	34.9071
S1	13.9484	76.4381	1003	2016-07-03 16:01:00	-0.772	34.9074
S1	13.9484	76.4381	1003	2016-07-03 17:01:00	-0.7816	34.9072
S1	13.9484	76.4381	1003	2016-07-03 18:01:00	-0.7837	34.907
S1	13.9484	76.4381	1003	2016-07-03 19:01:00	-0.7845	34.907
S1	13.9484	76.4381	1003	2016-07-03 20:01:00	-0.78	34.9072
S1	13.9484	76.4381	1003	2016-07-03 21:01:00	-0.7671	34.9072
S1	13.9484	76.4381	1003	2016-07-03 22:01:00	-0.6821	34.9071
S1	13.9484	76.4381	1003	2016-07-03 23:01:00	-0.6587	34.9073
S1	13.9484	76.4381	1003	2016-07-04 00:01:00	-0.6342	34.9075
S1	13.9484	76.4381	1003	2016-07-04 01:01:00	-0.6145	34.908
S1	13.9484	76.4381	1003	2016-07-04 02:01:00	-0.5822	34.9082
S1	13.9484	76.4381	1003	2016-07-04 03:01:00	-0.5655	34.9084
S1	13.9484	76.4381	1003	2016-07-04 04:01:00	-0.5895	34.9081
S1	13.9484	76.4381	1003	2016-07-04 05:01:00	-0.6067	34.9081
S1	13.9484	76.4381	1003	2016-07-04 06:01:00	-0.6251	34.9081
S1	13.9484	76.4381	1003	2016-07-04 07:01:00	-0.6437	34.9077
S1	13.9484	76.4381	1003	2016-07-04 08:01:00	-0.6567	34.9075
S1	13.9484	76.4381	1003	2016-07-04 09:01:00	-0.6756	34.908
S1	13.9484	76.4381	1003	2016-07-04 10:01:00	-0.6762	34.9086
S1	13.9484	76.4381	1003	2016-07-04 11:01:00	-0.6916	34.9075
S1	13.9484	76.4381	1003	2016-07-04 12:01:00	-0.7015	34.9078
S1	13.9484	76.4381	1003	2016-07-04 13:01:00	-0.7139	34.9073
S1	13.9484	76.4381	1003	2016-07-04 14:01:00	-0.7252	34.9072
S1	13.9484	76.4381	1003	2016-07-04 15:01:00	-0.7343	34.9072
S1	13.9484	76.4381	1003	2016-07-04 16:01:00	-0.7415	34.9071
S1	13.9484	76.4381	1003	2016-07-04 17:01:00	-0.7445	34.9073
S1	13.9484	76.4381	1003	2016-07-04 18:01:00	-0.736	34.9073
S1	13.9484	76.4381	1003	2016-07-04 19:01:00	-0.7297	34.9071
S1	13.9484	76.4381	1003	2016-07-04 20:01:00	-0.7339	34.9073
S1	13.9484	76.4381	1003	2016-07-04 21:01:00	-0.7719	34.9067
S1	13.9484	76.4381	1003	2016-07-04 22:01:00	-0.8088	34.9072
S1	13.9484	76.4381	1003	2016-07-04 23:01:00	-0.8006	34.9072
S1	13.9484	76.4381	1003	2016-07-05 00:01:00	-0.7968	34.9073
S1	13.9484	76.4381	1003	2016-07-05 01:01:00	-0.7905	34.9072
S1	13.9484	76.4381	1003	2016-07-05 02:01:00	-0.7683	34.9075
S1	13.9484	76.4381	1003	2016-07-05 03:01:00	-0.7758	34.9071
S1	13.9484	76.4381	1003	2016-07-05 04:01:00	-0.7943	34.9074
S1	13.9484	76.4381	1003	2016-07-05 05:01:00	-0.7802	34.9065
S1	13.9484	76.4381	1003	2016-07-05 06:01:00	-0.7922	34.9075
S1	13.9484	76.4381	1003	2016-07-05 07:01:00	-0.7875	34.9076
S1	13.9484	76.4381	1003	2016-07-05 08:01:00	-0.7646	34.9072
S1	13.9484	76.4381	1003	2016-07-05 09:01:00	-0.7674	34.9077
S1	13.9484	76.4381	1003	2016-07-05 10:01:00	-0.7759	34.9072
S1	13.9484	76.4381	1003	2016-07-05 11:01:00	-0.7991	34.9076
S1	13.9484	76.4381	1003	2016-07-05 12:01:00	-0.7884	34.9074
S1	13.9484	76.4381	1003	2016-07-05 13:01:00	-0.7806	34.907
S1	13.9484	76.4381	1003	2016-07-05 14:01:00	-0.7861	34.9074
S1	13.9484	76.4381	1003	2016-07-05 15:01:00	-0.8024	34.9079
S1	13.9484	76.4381	1003	2016-07-05 16:01:00	-0.8139	34.9073
S1	13.9484	76.4381	1003	2016-07-05 17:01:00	-0.8196	34.9073
S1	13.9484	76.4381	1003	2016-07-05 18:01:00	-0.8228	34.9072
S1	13.9484	76.4381	1003	2016-07-05 19:01:00	-0.8187	34.9073
S1	13.9484	76.4381	1003	2016-07-05 20:01:00	-0.8252	34.9072
S1	13.9484	76.4381	1003	2016-07-05 21:01:00	-0.8342	34.9074
S1	13.9484	76.4381	1003	2016-07-05 22:01:00	-0.8344	34.9072
S1	13.9484	76.4381	1003	2016-07-05 23:01:00	-0.831	34.9076
S1	13.9484	76.4381	1003	2016-07-06 00:01:00	-0.8277	34.9075
S1	13.9484	76.4381	1003	2016-07-06 01:01:00	-0.8309	34.9075
S1	13.9484	76.4381	1003	2016-07-06 02:01:00	-0.8306	34.9073
S1	13.9484	76.4381	1003	2016-07-06 03:01:00	-0.8281	34.9074
S1	13.9484	76.4381	1003	2016-07-06 04:01:00	-0.8312	34.9074
S1	13.9484	76.4381	1003	2016-07-06 05:01:00	-0.8336	34.9075
S1	13.9484	76.4381	1003	2016-07-06 06:01:00	-0.8337	34.9074
S1	13.9484	76.4381	1003	2016-07-06 07:01:00	-0.8342	34.9072
S1	13.9484	76.4381	1003	2016-07-06 08:01:00	-0.8352	34.9075
S1	13.9484	76.4381	1003	2016-07-06 09:01:00	-0.8344	34.9076
S1	13.9484	76.4381	1003	2016-07-06 10:01:00	-0.8338	34.9074
S1	13.9484	76.4381	1003	2016-07-06 11:01:00	-0.8353	34.9076
S1	13.9484	76.4381	1003	2016-07-06 12:01:00	-0.8343	34.9073
S1	13.9484	76.4381	1003	2016-07-06 13:01:00	-0.8361	34.9078
S1	13.9484	76.4381	1003	2016-07-06 14:01:00	-0.8357	34.9075
S1	13.9484	76.4381	1003	2016-07-06 15:01:00	-0.8357	34.9078
S1	13.9484	76.4381	1003	2016-07-06 16:01:00	-0.8357	34.9076
S1	13.9484	76.4381	1003	2016-07-06 17:01:00	-0.8363	34.9076
S1	13.9484	76.4381	1003	2016-07-06 18:01:00	-0.8374	34.9075
S1	13.9484	76.4381	1003	2016-07-06 19:01:00	-0.8388	34.9077
S1	13.9484	76.4381	1003	2016-07-06 20:01:00	-0.8375	34.9077
S1	13.9484	76.4381	1003	2016-07-06 21:01:00	-0.8366	34.9075
S1	13.9484	76.4381	1003	2016-07-06 22:01:00	-0.8379	34.9075
S1	13.9484	76.4381	1003	2016-07-06 23:01:00	-0.8378	34.9073
S1	13.9484	76.4381	1003	2016-07-07 00:01:00	-0.8355	34.9073
S1	13.9484	76.4381	1003	2016-07-07 01:01:00	-0.8352	34.9074
S1	13.9484	76.4381	1003	2016-07-07 02:01:00	-0.8369	34.9075
S1	13.9484	76.4381	1003	2016-07-07 03:01:00	-0.8367	34.9075
S1	13.9484	76.4381	1003	2016-07-07 04:01:00	-0.8367	34.9078
S1	13.9484	76.4381	1003	2016-07-07 05:01:00	-0.8366	34.9075
S1	13.9484	76.4381	1003	2016-07-07 06:01:00	-0.8334	34.9077
S1	13.9484	76.4381	1003	2016-07-07 07:01:00	-0.8289	34.9074
S1	13.9484	76.4381	1003	2016-07-07 08:01:00	-0.8308	34.9073
S1	13.9484	76.4381	1003	2016-07-07 09:01:00	-0.8306	34.9072
S1	13.9484	76.4381	1003	2016-07-07 10:01:00	-0.831	34.9074
S1	13.9484	76.4381	1003	2016-07-07 11:01:00	-0.8374	34.9075
S1	13.9484	76.4381	1003	2016-07-07 12:01:00	-0.827	34.9074
S1	13.9484	76.4381	1003	2016-07-07 13:01:00	-0.8385	34.9074
S1	13.9484	76.4381	1003	2016-07-07 14:01:00	-0.8374	34.9076
S1	13.9484	76.4381	1003	2016-07-07 15:01:00	-0.8331	34.908
S1	13.9484	76.4381	1003	2016-07-07 16:01:00	-0.8316	34.9071
S1	13.9484	76.4381	1003	2016-07-07 17:01:00	-0.8354	34.9076
S1	13.9484	76.4381	1003	2016-07-07 18:01:00	-0.8333	34.9078
S1	13.9484	76.4381	1003	2016-07-07 19:01:00	-0.8254	34.907
S1	13.9484	76.4381	1003	2016-07-07 20:01:00	-0.8149	34.9071
S1	13.9484	76.4381	1003	2016-07-07 21:01:00	-0.8187	34.9075
S1	13.9484	76.4381	1003	2016-07-07 22:01:00	-0.8315	34.9075
S1	13.9484	76.4381	1003	2016-07-07 23:01:00	-0.8157	34.9073
S1	13.9484	76.4381	1003	2016-07-08 00:01:00	-0.7729	34.9068
S1	13.9484	76.4381	1003	2016-07-08 01:01:00	-0.7894	34.9065
S1	13.9484	76.4381	1003	2016-07-08 02:01:00	-0.7119	34.9068
S1	13.9484	76.4381	1003	2016-07-08 03:01:00	-0.6759	34.9077
S1	13.9484	76.4381	1003	2016-07-08 04:01:00	-0.6837	34.9082
S1	13.9484	76.4381	1003	2016-07-08 05:01:00	-0.6833	34.9073
S1	13.9484	76.4381	1003	2016-07-08 06:01:00	-0.6984	34.9074
S1	13.9484	76.4381	1003	2016-07-08 07:01:00	-0.734	34.9077
S1	13.9484	76.4381	1003	2016-07-08 08:01:00	-0.7543	34.9073
S1	13.9484	76.4381	1003	2016-07-08 09:01:00	-0.7696	34.9072
S1	13.9484	76.4381	1003	2016-07-08 10:01:00	-0.7791	34.9075
S1	13.9484	76.4381	1003	2016-07-08 11:01:00	-0.8009	34.9073
S1	13.9484	76.4381	1003	2016-07-08 12:01:00	-0.7996	34.9073
S1	13.9484	76.4381	1003	2016-07-08 13:01:00	-0.8074	34.9077
S1	13.9484	76.4381	1003	2016-07-08 14:01:00	-0.7972	34.9076
S1	13.9484	76.4381	1003	2016-07-08 15:01:00	-0.8048	34.9076
S1	13.9484	76.4381	1003	2016-07-08 16:01:00	-0.797	34.9067
S1	13.9484	76.4381	1003	2016-07-08 17:01:00	-0.814	34.9074
S1	13.9484	76.4381	1003	2016-07-08 18:01:00	-0.767	34.907
S1	13.9484	76.4381	1003	2016-07-08 19:01:00	-0.8005	34.9073
S1	13.9484	76.4381	1003	2016-07-08 20:01:00	-0.7913	34.907
S1	13.9484	76.4381	1003	2016-07-08 21:01:00	-0.7726	34.9075
S1	13.9484	76.4381	1003	2016-07-08 22:01:00	-0.7368	34.9071
S1	13.9484	76.4381	1003	2016-07-08 23:01:00	-0.718	34.9072
S1	13.9484	76.4381	1003	2016-07-09 00:01:00	-0.726	34.9071
S1	13.9484	76.4381	1003	2016-07-09 01:01:00	-0.7294	34.9072
S1	13.9484	76.4381	1003	2016-07-09 02:01:00	-0.728	34.9074
S1	13.9484	76.4381	1003	2016-07-09 03:01:00	-0.7245	34.9074
S1	13.9484	76.4381	1003	2016-07-09 04:01:00	-0.7219	34.9074
S1	13.9484	76.4381	1003	2016-07-09 05:01:00	-0.7241	34.9072
S1	13.9484	76.4381	1003	2016-07-09 06:01:00	-0.728	34.9074
S1	13.9484	76.4381	1003	2016-07-09 07:01:00	-0.7308	34.9073
S1	13.9484	76.4381	1003	2016-07-09 08:01:00	-0.7492	34.9071
S1	13.9484	76.4381	1003	2016-07-09 09:01:00	-0.7602	34.9069
S1	13.9484	76.4381	1003	2016-07-09 10:01:00	-0.7704	34.9071
S1	13.9484	76.4381	1003	2016-07-09 11:01:00	-0.7703	34.9073
S1	13.9484	76.4381	1003	2016-07-09 12:01:00	-0.7829	34.9071
S1	13.9484	76.4381	1003	2016-07-09 13:01:00	-0.7751	34.9068
S1	13.9484	76.4381	1003	2016-07-09 14:01:00	-0.7941	34.9075
S1	13.9484	76.4381	1003	2016-07-09 15:01:00	-0.8111	34.9076
S1	13.9484	76.4381	1003	2016-07-09 16:01:00	-0.8062	34.9071
S1	13.9484	76.4381	1003	2016-07-09 17:01:00	-0.8063	34.9073
S1	13.9484	76.4381	1003	2016-07-09 18:01:00	-0.7728	34.9073
S1	13.9484	76.4381	1003	2016-07-09 19:01:00	-0.7885	34.9072
S1	13.9484	76.4381	1003	2016-07-09 20:01:00	-0.7631	34.9073
S1	13.9484	76.4381	1003	2016-07-09 21:01:00	-0.7502	34.9074